Le nostre stazioni meteo in Italia

Pubblicità
Il mio iltempo24.it
Cassley, Gran Bretagna (99003): Temperatura & dewpoint: 22.05.2018 08:00:00 - 28.05.2018 08:00:00 (BST)Cassley, Gran Bretagna (99003): precipitazioni: 22.05.2018 08:00:00 - 28.05.2018 08:00:00 (BST)
Data & Tempo tt [°C] td [°C] rr [mm]
28.05.2018 08:00:00 11,3 8,7 0,0
28.05.2018 07:00:00 9,2 7,6 0,0
28.05.2018 06:00:00 8,2 7,4 0,0
28.05.2018 05:00:00 6,0 5,0 0,0
28.05.2018 04:00:00 6,3 5,3 0,0
28.05.2018 03:00:00 7,2 5,9 0,0
28.05.2018 02:00:00 7,4 6,1 0,0
28.05.2018 01:00:00 8,2 6,3 0,0
28.05.2018 00:00:00 8,4 5,7 0,0
27.05.2018 23:00:00 10,3 6,2 0,0
27.05.2018 22:00:00 13,4 6,6 0,0
27.05.2018 21:00:00 14,2 7,8 0,0
27.05.2018 20:00:00 16,1 9,0 0,0
27.05.2018 19:00:00 18,0 7,6 0,0
27.05.2018 18:00:00 19,5 7,9 0,0
27.05.2018 17:00:00 20,8 6,6 0,0
27.05.2018 16:00:00 20,6 5,8 0,0
27.05.2018 15:00:00 20,8 4,9 0,0
27.05.2018 14:00:00 18,8 5,8 0,0
27.05.2018 13:00:00 18,9 2,2 0,0
27.05.2018 12:00:00 18,4 3,2 0,0
27.05.2018 11:00:00 14,7 7,8 0,0
27.05.2018 10:00:00 11,7 6,7 0,0
27.05.2018 09:00:00 8,7 7,1 0,0
27.05.2018 08:00:00 6,9 6,6 0,0
27.05.2018 07:00:00 6,7 6,6 0,0
27.05.2018 06:00:00 6,7 6,7 0,0
27.05.2018 05:00:00 6,2 6,1 0,0
27.05.2018 04:00:00 6,0 5,8 0,0
27.05.2018 03:00:00 6,7 6,4 0,0
27.05.2018 02:00:00 7,1 6,9 0,0
27.05.2018 01:00:00 7,4 7,0 0,0
27.05.2018 00:00:00 7,7 7,1 0,0
26.05.2018 23:00:00 8,0 7,1 0,0
26.05.2018 22:00:00 9,8 7,7 0,0
26.05.2018 21:00:00 12,5 8,8 0,0
26.05.2018 20:00:00 14,3 9,2 0,0
26.05.2018 19:00:00 15,8 9,7 0,0
26.05.2018 18:00:00 18,8 7,9 0,0
26.05.2018 17:00:00 20,1 8,6 0,0
26.05.2018 16:00:00 17,9 10,0 0,0
26.05.2018 15:00:00 16,9 10,1 0,0
26.05.2018 14:00:00 16,3 10,2 0,0
26.05.2018 13:00:00 14,5 9,8 0,0
26.05.2018 12:00:00 12,6 9,1 0,0
26.05.2018 11:00:00 10,4 8,2 0,0
26.05.2018 10:00:00 9,8 7,6 0,0
26.05.2018 09:00:00 8,9 7,0 0,0
26.05.2018 08:00:00 8,7 6,8 0,0
26.05.2018 07:00:00 8,5 7,0 0,0
26.05.2018 06:00:00 8,5 7,2 0,0
26.05.2018 05:00:00 8,7 7,2 0,0
26.05.2018 04:00:00 8,6 7,3 0,0
26.05.2018 03:00:00 8,8 7,5 0,0
26.05.2018 02:00:00 9,2 7,8 0,0
26.05.2018 01:00:00 9,4 8,0 0,0
26.05.2018 00:00:00 9,4 7,9 0,0
25.05.2018 23:00:00 9,3 7,7 0,0
25.05.2018 22:00:00 9,5 7,7 0,0
25.05.2018 21:00:00 10,3 8,1 0,0
25.05.2018 20:00:00 10,9 8,1 0,0
25.05.2018 19:00:00 11,6 8,2 0,0
25.05.2018 18:00:00 13,7 9,2 0,0
25.05.2018 17:00:00 14,0 9,1 0,0
25.05.2018 16:00:00 15,0 9,6 0,0
25.05.2018 15:00:00 14,0 9,7 0,0
25.05.2018 14:00:00 14,5 9,8 0,0
25.05.2018 13:00:00 14,4 10,0 0,0
25.05.2018 12:00:00 14,4 9,4 0,0
25.05.2018 11:00:00 14,3 9,8 0,0
25.05.2018 10:00:00 13,5 8,8 0,0
25.05.2018 09:00:00 12,7 8,6 0,0
25.05.2018 08:00:00 12,2 8,7 0,0
25.05.2018 07:00:00 10,9 8,9 0,0
25.05.2018 06:00:00 10,5 9,4 0,0
25.05.2018 05:00:00 10,4 9,5 0,0
25.05.2018 04:00:00 10,3 9,3 0,0
25.05.2018 03:00:00 10,8 9,1 0,0
25.05.2018 02:00:00 10,8 9,1 0,0
25.05.2018 01:00:00 10,9 9,2 0,0
25.05.2018 00:00:00 11,4 9,0 0,0
24.05.2018 23:00:00 12,6 9,7 0,0
24.05.2018 22:00:00 13,7 9,4 0,0
24.05.2018 21:00:00 15,5 9,7 0,0
24.05.2018 20:00:00 17,2 10,4 0,0
24.05.2018 19:00:00 19,2 8,8 0,0
24.05.2018 18:00:00 19,4 9,8 0,0
24.05.2018 17:00:00 20,5 10,0 0,0
24.05.2018 16:00:00 22,5 10,3 0,0
24.05.2018 15:00:00 21,8 8,7 0,0
24.05.2018 14:00:00 20,4 9,0 0,0
24.05.2018 13:00:00 17,8 8,7 0,0
24.05.2018 12:00:00 14,5 9,2 0,0
24.05.2018 11:00:00 11,1 9,4 0,0
24.05.2018 10:00:00 9,1 8,9 0,0
24.05.2018 09:00:00 6,8 6,8 0,0
24.05.2018 08:00:00 6,1 6,0 0,0
24.05.2018 07:00:00 5,7 5,6 0,0
24.05.2018 06:00:00 5,6 5,4 0,0
24.05.2018 05:00:00 5,1 4,9 0,0
24.05.2018 04:00:00 4,7 4,3 0,0
24.05.2018 03:00:00 5,2 4,7 0,0
24.05.2018 02:00:00 5,6 5,0 0,0
24.05.2018 01:00:00 5,8 4,9 0,0
24.05.2018 00:00:00 6,4 5,0 0,0
23.05.2018 23:00:00 7,3 4,9 0,0
23.05.2018 22:00:00 9,5 6,8 0,0
23.05.2018 21:00:00 11,4 8,3 0,0
23.05.2018 20:00:00 12,1 8,6 0,0
23.05.2018 19:00:00 13,8 9,0 0,0
23.05.2018 18:00:00 15,4 9,7 0,0
23.05.2018 17:00:00 15,6 9,7 0,0
23.05.2018 16:00:00 15,9 9,5 0,0
23.05.2018 15:00:00 16,8 8,5 0,0
23.05.2018 14:00:00 14,8 8,3 0,0
23.05.2018 13:00:00 13,7 8,3 0,0
23.05.2018 12:00:00 13,7 8,5 0,0
23.05.2018 11:00:00 12,5 8,1 0,0
23.05.2018 10:00:00 10,5 6,8 0,0
23.05.2018 09:00:00 9,4 6,4 0,0
23.05.2018 08:00:00 9,2 6,1 0,0
23.05.2018 07:00:00 8,2 6,4 0,0
23.05.2018 06:00:00 7,8 6,3 0,0
23.05.2018 05:00:00 7,4 6,0 0,0
23.05.2018 04:00:00 7,3 5,9 0,0
23.05.2018 03:00:00 7,4 5,6 0,0
23.05.2018 02:00:00 7,6 5,3 0,0
23.05.2018 01:00:00 7,5 5,2 0,0
23.05.2018 00:00:00 7,4 5,0 0,0
22.05.2018 23:00:00 8,0 4,8 0,0
22.05.2018 22:00:00 8,4 5,0 0,0
22.05.2018 21:00:00 8,5 4,8 0,0
22.05.2018 20:00:00 9,2 5,0 0,0
22.05.2018 19:00:00 10,0 5,6 0,0
22.05.2018 18:00:00 10,4 5,5 0,0
22.05.2018 17:00:00 10,2 5,8 0,0
22.05.2018 16:00:00 10,1 6,3 0,0
22.05.2018 15:00:00 10,1 6,1 0,0
22.05.2018 14:00:00 9,7 6,1 0,0
22.05.2018 13:00:00 9,9 5,6 0,0
22.05.2018 12:00:00 9,6 5,6 0,0
22.05.2018 11:00:00 9,2 5,2 0,0
22.05.2018 10:00:00 9,2 4,9 0,0
22.05.2018 09:00:00 8,7 4,5 0,0
22.05.2018 08:00:00 7,3 4,0 0,0

tt = Temperatura
td = dewpoint
rr = precipitazioni

Stazioni seguenti

WeatherPro
AMSI
MeteoEarth